731  
NZUS01 KABQ 260610  
RWRABQ  
NEW MEXICO REGIONAL WEATHER ROUNDUP  
NATIONAL WEATHER SERVICE ALBUQUERQUE NM  
1200 AM MDT TUE MAR 26 2019  
 
-----NORTHERN NEW MEXICO AND NEARBY AREAS-----  
 
 
CITY SKY/WX TMP DP RH WIND PRES REMARKS
 
ALBUQUERQUE FAIR 53 19 26 NE6 30.27S  
6HR MIN TEMP: 51; 6HR MAX TEMP: 67;  
 
BELEN FAIR 46 14 27 CALM 30.26S  
6HR MIN TEMP: 45; 6HR MAX TEMP: 68;  
 
SOCORRO FAIR 48 11 22 W6 30.24S  
6HR MIN TEMP: 48; 6HR MAX TEMP: 72;  
 
 
CITY SKY/WX TMP DP RH WIND PRES REMARKS
 
SANTA FE FAIR 40 19 43 N7 30.30S  
6HR MIN TEMP: 37; 6HR MAX TEMP: 64;  
 
LOS ALAMOS FAIR 48 13 24 CALM 30.35F  
6HR MIN TEMP: 48; 6HR MAX TEMP: 57;  
 
TAOS FAIR 31 18 58 N9 30.38S WCI 23  
6HR MIN TEMP: 31; 6HR MAX TEMP: 59;  
 
ANGEL FIRE N/A 24 20 82 CALM 30.41S  
6HR MIN TEMP: 24; 6HR MAX TEMP: 51;  
 
FARMINGTON FAIR 39 19 44 NE8 30.27R  
6HR MIN TEMP: 38; 6HR MAX TEMP: 65;  
 
GRANTS FAIR 33 12 42 CALM 30.32F  
6HR MIN TEMP: 32; 6HR MAX TEMP: 66;  
 
GALLUP FAIR 43 14 31 NE9 30.29F  
6HR MIN TEMP: 40; 6HR MAX TEMP: 65;  
 
FLAGSTAFF FAIR 31 19 61 CALM 30.27F  
6HR MIN TEMP: 31; 6HR MAX TEMP: 61;  
 
DURANGO FAIR 33 23 66 CALM 30.32S  
6HR MIN TEMP: 32; 6HR MAX TEMP: 58;  
 
 
CITY SKY/WX TMP DP RH WIND PRES REMARKS
 
ALAMOSA FAIR 27 11 51 W5 30.35F WCI 22  
6HR MIN TEMP: 27; 6HR MAX TEMP: 56;  
 
DENVER FAIR 36 28 73 S10 30.30F  
6HR MIN TEMP: 34; 6HR MAX TEMP: 54;  
 
CLAYTON FOG 40 39 97 NE10 30.32F VSB 3/4  
6HR MIN TEMP: 40; 6HR MAX TEMP: 58;  
 
RATON FAIR 43 29 57 NE9 30.31R  
6HR MIN TEMP: 38; 6HR MAX TEMP: 64;  
 
LAS VEGAS FAIR 42 15 33 NW3 30.31F  
6HR MIN TEMP: 34; 6HR MAX TEMP: 63;  
 
CLINES CORNERS FAIR 43 12 28 S6 30.33F  
6HR MIN TEMP: 42; 6HR MAX TEMP: 62;  
 
SANTA ROSA FAIR 50 22 33 S6 30.25S  
6HR MIN TEMP: 49; 6HR MAX TEMP: 70;  
 
TUCUMCARI FAIR 53 36 52 SW9 30.22R  
6HR MIN TEMP: 51; 6HR MAX TEMP: 72;  
 
CLOVIS (AFB) CLEAR 48 39 71 SE7 30.29R  
6HR MIN TEMP: 46; 6HR MAX TEMP: 70;  
 
CLOVIS N/A 46 39 76 S9 30.29R  
6HR MIN TEMP: 46; 6HR MAX TEMP: 68;  
 
AMARILLO CLEAR 46 42 86 SE10 30.30R  
6HR MIN TEMP: 46; 6HR MAX TEMP: 63;  
 
-----SOUTHERN NEW MEXICO AND NEARBY AREAS-----  
 
 
CITY SKY/WX TMP DP RH WIND PRES REMARKS
 
T OR C FAIR 54 5 14 NW9 30.21F  
6HR MIN TEMP: 53; 6HR MAX TEMP: 75;  
 
DEMING FAIR 48 9 20 E3 30.19S  
6HR MIN TEMP: 48; 6HR MAX TEMP: 76;  
 
TUCSON FAIR 64 30 27 SW6 30.07S  
6HR MIN TEMP: 64; 6HR MAX TEMP: 85;  
 
EL PASO MOCLDY 65 26 23 CALM 30.18S  
6HR MIN TEMP: 64; 6HR MAX TEMP: 77;  
 
LAS CRUCES FAIR 61 23 23 SE8 30.23S  
6HR MIN TEMP: 55; 6HR MAX TEMP: 78;  
 
 
CITY SKY/WX TMP DP RH WIND PRES REMARKS
 
ALAMOGORDO FAIR 52 17 25 N6 30.23S  
6HR MIN TEMP: 51; 6HR MAX TEMP: 75;  
 
RUIDOSO FAIR 48 16 27 S6 30.37F  
ROSWELL FAIR 50 25 37 SW5 30.23S  
6HR MIN TEMP: 50; 6HR MAX TEMP: 75;  
 
CARLSBAD FAIR 56 33 42 S9 30.23R  
6HR MIN TEMP: 56; 6HR MAX TEMP: 75;  
 
HOBBS CLEAR 52 41 66 SE12 30.28S  
 
CLICK HERE TO GO TO PREVIOUS BULLETINS.

The Nexlab NM Page Main Text Page